DECAYED

NOAA 16 DEB, 42424 (Decayed)

Orbit data source: Space-Track

NOAA 16 DEB, 42424 was space debris in SSO originally from a launch on Thu, 21 Sep 2000 UTC launched from the Air Force Western Test Range (AFWTR). Debris objects in space refer to the collection of defunct objects orbiting the Earth. Examples of debris include non-operational satellites, rocket bodies, and fragments generated from explosions, collisions, or faulty payload assembly.

Loading next visibility...
Identifier
42424, 2000-055TU
Orbit
Decayed
Country
Flag of USUS
Related business
Manufacturer
Unknown
Mission
Decayed spacecraft
Bus & Motor
Unknown
Mass
Unknown
Launch date (UTC)
2000-09-21 (26 years ago)
Launch vehicle
Unknown
Launch site
Air Force Western Test Range (AFWTR)
Object type
Payload
Rocket body
Debris
Shape & HBR
Unknown shape, 0.1 m
Radar Cross Section
Small (<0.1 m²)

Expand to show TLE details & history
Last TLE update: 1 year ago

TLE from 1 year ago
0 NOAA 16 DEB
1 42424U 00055TU  25078.05546940  .07665119  00000-0  55029-1 0  9998
2 42424  98.9227 295.2739 0009262 313.1887  46.8595 15.68477613465350
Epoch: 2025-03-19T01:19Z
TLE epoch observation values (Epoch: 2025-03-19T01:19:52.556Z)
Latitude
0.00001°
Longitude
98.45583°
Altitude
362.095 km
Speed
7.694 km/s
True Right ascension
19h 41m 05s
True Declination
0° 00' 00"
Sunlit
Object was in daylight at epoch
Visualization orbit readout
Latitude
Unknown
Longitude
Unknown
Altitude
Unknown
Speed
Unknown
Apparent Right ascension
Unknown
Apparent Declination
Unknown
Sunlit
N/A
Visualization observer readout
Local Sidereal Time
02:17:23
Azimuth
Unknown
Elevation
Unknown
Doppler factor
Unknown
Orbital elements
Apogee altitude
366.471 km
Perigee altitude
353.989 km
Semi-major axis
6,738.367 km
Eccentricity
0.00093
Inclination
98.9227°
RAAN
295.2739°
Arg. of periapsis
313.1887°
True anomaly
46.93701°
Mean anomaly
46.8595°
Eccentric anomaly
46.89825°
Mean motion
3.92384 °/min
Orbital period
91.75 mins
BSTAR
0.055029
Loading maneuver chart data...
Computing Atmospheric mass density...

Documentation

Showing up to 5 results
|